Weather in Bogodukhovo

Russia / Oryol Oblast     52°41′41″N   36°30′36″E
temp.,
°C
wind,
m/s
gust,
m/s
humid.,
%
clouds,
%
prec.,
mm/h
press.,
hPa
HPBL,
m
3 march, wed
wed300:00−1nw6139495 0.3 1015656
03:00−1nw6139197 0.4 1016633
06:00−3nnw6159260 0.1 1017595
09:00−4nnw5139250 0.1 1020656
12:00−1nw6108250 0.0 1020873
15:000wnw598525 0.0 1020724
18:00−2w511916 0.0 1018330
21:00−1w7128649 0.0 1018753
4 march, thu
thu400:00−1w61189100 0.0 1016695
03:00−2wsw7149297 0.0 1015383
06:00−2wsw7159158 0.0 1012377
09:00−2wsw8168637 0.0 1010495
12:00+1wsw8148778 0.0 1007689
15:00+1wsw7139488 0.0 1005694
18:00+2wsw61392100 0.0 1003558
21:00+2wsw61495100 0.1 1002479
5 march, fri
fri500:00+1w51098100 0.9 1002394
03:00−1wnw51093100 1.6 1003481
06:00−3n5794100 0.1 1005380
09:00−4n359396 0.2 1008304
12:00−2n238494 0.0 1009481
15:00−1nnw238097 0.1 1011636
18:00−3w118599 0.0 101221
21:00−4nnw238899 0.0 101437
6 march, sat
sat600:00−5n3591100 0.0 1015129
03:00−7n239057 0.0 101653
06:00−8n12890 0.0 101621
09:00−7sw118726 0.0 101664
12:00−4sw238077 0.0 1017489
15:00−4wnw478588 1.1 1017625
18:00−6nnw9149082 0.4 1018763
21:00−9nnw4108072 0.5 1020362
7 march, sun
sun700:00−9w34850 0.0 1021107
03:00−8wsw410850 0.0 1019295
06:00−8sw7157822 0.0 1016454
09:00−6sw10177561 0.0 1013782
12:00−3wsw111873100 0.0 10101132
15:00−2wsw111979100 0.1 10061300
18:00−1wsw111976100 0.0 10031219
21:00−2wnw81495100 0.8 1004771